Wind_Speed
12 12 12 13 13 12 12 12 11 12 12 11 11 10 11 11 10 13 16 7 13 8 13 8 12 14 9 6 7 3 1 1 3 11 10 13 6 7 12 30 26 7 35 36 42
12 12 12 12 12 12 12 11 10 10 11 12 12 11 11 12 14 17 8 11 17 13 11 12 16 16 6 6 4 3 2 2 4 8 15 19 15 9 7 24 13 31 34 42 40
13 14 14 13 12 12 11 10 10 9 9 10 11 11 10 11 12 1 1 14 18 15 11 15 14 12 7 6 7 3 3 6 7 20 22 18 14 17 10 6 27 36 43 40 40
13 13 13 13 13 12 11 10 8 9 9 9 9 10 10 7 3 3 3 10 15 16 14 18 15 10 5 7 10 3 4 4 11 23 21 15 22 12 4 6 33 36 47 43 40
14 14 14 13 13 13 11 10 9 9 10 9 8 8 8 6 10 2 2 10 15 18 21 20 15 10 5 4 9 2 4 2 11 20 18 23 18 13 16 16 30 36 42 42 38
16 16 15 14 12 11 11 10 10 10 9 8 8 7 7 4 3 4 2 6 14 18 23 23 10 9 8 8 11 12 13 14 9 18 18 15 13 13 10 24 33 34 37 37 39
19 19 17 15 13 11 9 9 10 9 6 7 6 8 10 13 5 3 6 7 11 18 25 23 14 9 4 7 14 8 6 13 17 15 8 25 6 9 29 23 34 28 35 35 33
21 21 19 16 12 10 8 7 8 7 4 5 5 7 9 6 11 8 4 10 13 17 22 16 10 16 17 8 2 4 3 5 10 18 20 7 8 6 13 26 29 30 29 27 33
21 22 19 15 11 8 5 5 4 3 0 3 3 5 9 5 15 10 9 8 14 16 22 13 9 11 5 2 4 1 5 3 5 24 10 2 10 14 13 12 29 28 27 22 30
20 21 18 13 10 7 5 2 3 2 2 5 5 5 9 11 14 13 10 7 14 14 9 10 5 1 4 4 5 6 4 2 9 16 7 7 10 18 28 24 28 28 28 25 29
19 20 17 13 9 7 3 2 4 2 7 9 7 12 19 6 13 16 18 14 12 11 5 5 3 6 7 6 6 3 4 4 8 16 8 7 15 19 21 10 24 24 26 27 28
16 17 14 11 12 7 2 5 7 8 10 18 20 25 23 13 7 16 20 16 9 5 3 5 5 7 6 7 7 6 3 1 6 10 7 10 9 6 11 17 25 28 27 32 33
12 13 9 11 13 6 10 7 9 16 5 15 14 15 18 8 13 19 18 20 7 6 5 6 6 8 6 8 8 7 4 4 6 9 7 13 6 9 9 7 18 27 29 34 39
12 11 9 9 5 9 9 7 15 13 4 7 4 6 8 10 7 18 17 16 3 9 5 6 8 6 9 10 7 8 8 8 14 5 6 2 4 7 7 10 16 22 29 33 38
12 10 9 7 5 5 9 13 12 6 3 13 4 3 3 8 12 12 15 17 5 6 6 8 5 7 9 16 8 11 6 8 10 7 7 2 4 6 9 12 9 14 25 27 35
12 9 9 5 6 6 11 13 10 5 3 9 3 4 4 3 3 3 23 20 5 2 3 8 18 8 10 11 12 10 2 3 4 4 3 7 5 3 13 16 15 12 21 29 25
12 10 10 12 2 9 15 13 5 4 6 6 5 5 4 7 5 5 6 4 5 2 3 5 5 8 7 7 5 4 6 1 1 1 5 9 8 7 11 17 20 21 33 31 32
11 12 12 10 4 6 11 5 7 3 6 6 8 10 8 7 7 6 7 4 5 4 2 2 6 6 3 9 7 5 8 5 5 4 5 8 4 4 6 13 17 12 8 10 26
9 11 12 3 4 4 5 5 4 4 6 5 11 8 6 5 4 6 9 5 5 5 7 1 4 4 4 5 8 3 3 7 2 1 2 5 4 7 11 12 19 16 13 9 11
6 9 8 5 6 5 4 2 3 5 3 2 6 6 4 7 6 5 3 3 3 5 3 3 3 1 7 2 2 7 4 2 3 2 3 3 3 2 2 5 8 12 11 8 9
7 8 6 7 7 4 2 4 5 5 10 2 4 5 4 4 5 5 4 4 4 7 7 4 4 8 3 1 8 4 2 5 4 4 5 5 1 4 6 5 6 7 8 8 8
4 2 4 12 4 2 1 4 2 8 15 7 3 3 4 6 5 5 4 4 10 5 3 1 3 2 4 6 4 5 2 5 5 4 2 4 2 4 10 9 8 8 8 7 7
11 6 3 9 1 2 5 1 5 6 5 7 6 4 4 3 4 3 3 4 11 6 2 4 3 3 9 6 9 6 5 4 2 2 5 6 4 6 15 12 11 11 6 6 7
4 3 4 8 6 6 4 4 3 10 6 5 3 9 7 7 6 5 6 3 5 4 1 3 4 5 4 3 1 5 11 6 5 3 3 4 10 8 11 11 12 15 12 10 9
2 2 7 1 4 4 6 4 8 5 11 18 10 5 5 4 4 5 5 6 3 7 4 4 2 2 6 7 5 3 8 14 2 5 4 11 14 16 13 14 17 19 16 15 14
6 6 9 6 6 9 6 6 7 4 5 5 7 9 6 4 2 1 1 5 2 7 5 6 2 3 6 6 9 7 14 12 6 9 11 14 9 15 22 23 20 18 17 16 18
10 4 4 4 4 5 1 3 5 6 9 13 7 5 7 3 1 3 3 4 2 2 5 4 3 3 1 4 3 5 7 8 5 6 16 8 9 22 17 20 22 21 20 21 19
Wind_Direction
330 326 322 320 317 314 309 309 309 306 300 296 296 299 301 293 279 263 252 234 183 163 169 171 182 169 182 226 243 174 15 300 171 142 143 149 125 133 112 137 145 153 145 150 162
331 326 322 320 319 317 314 309 306 304 300 295 293 296 299 300 292 266 257 212 191 183 189 183 174 170 193 227 227 114 129 262 209 123 147 161 157 184 126 148 149 128 144 151 155
330 326 322 320 318 317 316 315 309 305 299 293 290 292 297 308 309 336 173 205 193 185 184 183 164 177 216 199 193 141 187 16 160 146 156 149 125 158 106 200 160 145 152 155 159
332 327 325 321 316 313 314 312 312 308 299 291 284 285 290 298 239 121 28 187 183 180 184 191 201 220 236 191 177 157 217 279 154 153 157 145 132 151 170 168 165 150 160 160 165
340 335 331 327 322 312 308 305 305 308 301 289 275 268 280 271 250 260 66 169 179 180 187 190 210 220 214 207 161 220 96 101 193 162 153 139 143 153 181 165 168 147 161 167 173
348 342 334 329 322 313 304 299 297 308 298 281 266 252 248 268 226 174 261 202 194 186 185 192 204 218 247 224 207 181 130 129 218 184 152 130 141 136 185 158 168 162 167 172 172
350 344 339 336 324 313 302 297 301 305 294 273 248 242 242 236 174 174 316 257 206 193 188 196 203 261 338 321 289 213 103 164 210 181 122 120 145 157 160 162 167 178 175 176 183
354 350 343 340 334 321 308 300 306 306 285 256 230 241 252 217 212 242 231 215 199 193 193 200 223 267 262 276 50 98 4 158 193 173 166 146 141 106 153 167 173 178 187 181 171
352 349 347 345 342 334 314 314 329 339 28 174 187 239 258 220 216 205 209 216 184 187 198 218 283 266 274 66 47 230 216 165 133 183 150 151 128 180 193 192 177 186 192 187 155
350 350 349 351 350 346 339 35 4 15 115 157 214 288 251 219 196 193 192 189 175 182 229 254 234 167 48 79 205 187 191 156 156 189 143 105 144 183 189 185 185 190 191 186 162
348 352 354 357 3 9 53 10 355 244 225 237 260 245 299 284 200 192 196 186 182 184 178 223 105 206 218 205 232 287 315 312 126 140 115 163 166 192 202 186 195 195 192 186 168
342 354 5 19 15 19 49 316 14 329 298 291 278 265 273 283 241 212 196 183 186 193 192 16 212 226 222 258 261 273 287 13 73 148 96 160 172 239 197 210 208 197 189 176 168
337 349 353 350 354 18 335 329 352 330 301 300 260 254 255 243 228 208 211 195 160 184 172 168 232 212 219 264 263 265 212 208 145 97 94 145 158 194 228 228 211 206 190 176 169
338 336 346 346 352 335 2 13 339 316 42 280 193 266 260 206 192 203 198 196 147 187 203 211 241 220 230 250 222 253 216 228 150 138 174 203 230 221 166 199 187 198 179 177 173
339 333 340 359 335 321 355 329 328 309 6 336 191 180 202 146 163 195 198 203 171 177 121 238 224 207 223 233 190 239 233 204 186 158 107 267 82 297 138 208 183 170 173 179 187
331 323 321 321 298 355 346 339 324 49 287 317 203 206 122 226 222 226 190 212 239 238 303 236 251 174 216 238 231 234 74 52 68 118 125 203 139 258 188 189 170 162 175 179 190
319 311 312 296 272 333 333 339 53 60 344 305 351 336 190 198 239 153 166 179 156 108 302 285 258 238 209 239 328 128 73 350 43 137 203 172 184 225 206 173 175 175 200 193 189
303 299 299 282 264 325 335 53 70 211 263 276 279 271 190 173 217 169 147 182 223 119 32 264 308 180 209 184 196 165 149 155 182 183 224 140 190 310 42 141 150 167 181 220 201
310 295 294 231 261 301 332 52 183 177 256 286 327 35 6 329 180 122 168 197 200 166 180 264 267 340 339 215 131 270 143 184 79 19 41 141 142 43 66 65 74 70 85 98 171
339 307 284 171 218 280 67 268 200 224 256 232 26 8 45 10 48 56 99 325 38 22 243 222 270 271 296 289 205 141 188 67 6 186 210 21 69 149 111 69 69 67 60 70 109
348 321 187 190 201 226 118 239 260 292 228 88 25 24 24 49 40 27 357 13 19 355 34 44 83 303 359 101 202 26 57 58 119 130 165 142 4 279 114 90 96 87 93 91 105
343 335 142 162 120 123 171 209 60 9 31 9 80 81 42 27 37 47 51 38 19 9 22 42 114 291 258 280 251 149 128 134 134 246 99 119 133 83 112 112 101 95 91 97 109
328 280 289 200 134 282 293 50 67 27 18 20 16 32 61 74 67 43 37 27 37 48 91 324 5 22 349 15 11 34 358 86 146 82 182 138 179 120 120 119 120 103 89 108 130
334 350 64 79 72 107 79 357 114 43 27 23 0 57 60 33 5 41 10 16 54 64 36 80 54 126 164 237 284 338 347 22 112 91 153 152 140 172 145 139 141 120 114 117 123
332 311 354 298 346 48 78 56 59 21 29 24 18 27 111 56 51 25 328 358 39 2 24 85 50 359 69 353 7 324 350 348 330 181 151 182 156 167 149 146 142 137 128 113 108
31 17 339 350 14 82 28 344 93 38 65 353 63 58 53 82 124 127 208 38 94 336 31 358 0 21 41 308 1 10 5 1 12 108 70 107 78 138 143 139 138 134 130 123 112
26 347 344 350 21 86 312 64 51 114 58 63 61 72 47 45 47 294 343 326 308 59 12 58 80 52 53 310 157 18 334 347 346 52 140 153 167 150 146 147 148 141 135 126 121
Height
1521 1519 1517 1516 1515 1513 1513 1512 1511 1511 1510 1509 1507 1507 1506 1505 1504 1503 1501 1504 1506 1508 1510 1513 1515 1520 1522 1524 1523 1521 1527 1526 1524 1522 1529 1532 1528 1531 1532 1535 1539 1540 1544 1550 1554
1519 1518 1516 1514 1512 1511 1510 1509 1509 1508 1508 1507 1506 1505 1504 1503 1501 1498 1500 1501 1504 1506 1509 1511 1514 1518 1521 1520 1519 1520 1527 1520 1513 1513 1524 1530 1532 1534 1536 1538 1540 1544 1551 1554 1557
1518 1516 1514 1513 1511 1509 1508 1507 1507 1506 1505 1505 1504 1504 1502 1502 1500 1495 1496 1497 1502 1504 1508 1511 1515 1519 1520 1518 1517 1521 1523 1515 1515 1515 1523 1529 1534 1537 1542 1544 1541 1541 1549 1554 1559
1516 1513 1512 1511 1509 1507 1506 1505 1504 1504 1503 1502 1502 1502 1501 1501 1502 1495 1495 1496 1499 1503 1507 1509 1514 1518 1516 1514 1514 1519 1516 1518 1518 1517 1521 1527 1534 1535 1538 1539 1541 1544 1549 1554 1558
1514 1512 1510 1508 1507 1505 1503 1503 1502 1501 1501 1500 1499 1500 1501 1500 1495 1495 1495 1496 1498 1501 1504 1508 1511 1515 1514 1509 1512 1517 1517 1520 1524 1521 1520 1526 1532 1533 1537 1539 1544 1548 1553 1555 1558
1512 1509 1507 1505 1503 1502 1502 1500 1500 1499 1498 1497 1497 1498 1499 1500 1493 1494 1495 1496 1497 1499 1502 1506 1507 1512 1511 1509 1512 1510 1516 1521 1523 1525 1523 1526 1534 1534 1538 1538 1544 1548 1553 1556 1559
1512 1509 1505 1503 1501 1500 1499 1498 1497 1496 1495 1496 1495 1496 1496 1492 1492 1493 1494 1495 1497 1499 1501 1504 1507 1511 1509 1506 1505 1506 1514 1521 1521 1522 1525 1529 1536 1534 1535 1539 1543 1547 1551 1557 1557
1510 1507 1504 1501 1498 1497 1496 1496 1495 1494 1493 1494 1494 1495 1491 1489 1492 1492 1493 1493 1495 1499 1503 1506 1509 1511 1511 1507 1506 1508 1514 1522 1515 1519 1523 1525 1547 1538 1540 1542 1543 1546 1549 1554 1558
1509 1505 1502 1500 1497 1496 1495 1494 1494 1493 1493 1493 1495 1494 1487 1485 1486 1489 1491 1493 1495 1498 1501 1505 1509 1506 1505 1508 1520 1513 1526 1518 1517 1515 1520 1528 1548 1539 1541 1541 1543 1545 1549 1551 1556
1508 1503 1499 1498 1497 1495 1495 1495 1494 1494 1494 1494 1494 1496 1484 1482 1484 1487 1490 1493 1495 1498 1503 1504 1505 1505 1507 1517 1534 1525 1521 1513 1515 1517 1521 1532 1536 1537 1532 1536 1540 1543 1548 1551 1555
1507 1504 1500 1498 1496 1495 1496 1496 1497 1496 1493 1489 1487 1483 1481 1482 1485 1486 1489 1493 1496 1499 1503 1500 1508 1514 1509 1509 1509 1511 1514 1514 1510 1514 1528 1530 1535 1532 1535 1540 1541 1543 1546 1551 1554
1507 1504 1501 1499 1498 1497 1497 1495 1494 1496 1488 1483 1481 1480 1478 1482 1484 1485 1488 1493 1495 1501 1499 1506 1513 1502 1502 1504 1507 1510 1515 1517 1512 1512 1516 1533 1537 1540 1539 1537 1539 1540 1544 1549 1552
1506 1503 1501 1499 1498 1497 1496 1495 1494 1493 1490 1476 1474 1476 1476 1480 1481 1481 1486 1490 1492 1500 1501 1511 1502 1499 1503 1506 1510 1511 1516 1514 1517 1518 1522 1531 1542 1538 1536 1536 1539 1542 1543 1547 1550
1505 1502 1501 1499 1500 1496 1495 1494 1493 1492 1500 1483 1473 1472 1473 1473 1479 1480 1483 1488 1489 1498 1500 1503 1496 1500 1504 1507 1507 1522 1501 1502 1511 1519 1539 1520 1553 1531 1530 1534 1536 1540 1540 1544 1548
1504 1502 1501 1499 1497 1496 1495 1491 1490 1491 1516 1479 1473 1471 1472 1475 1476 1479 1482 1486 1489 1492 1498 1502 1495 1500 1504 1500 1499 1504 1495 1499 1500 1516 1523 1527 1538 1529 1526 1534 1533 1534 1539 1543 1547
1503 1501 1499 1497 1495 1494 1491 1489 1488 1503 1508 1483 1470 1471 1473 1474 1476 1478 1481 1485 1487 1491 1492 1494 1487 1490 1491 1487 1489 1488 1493 1495 1504 1515 1540 1522 1530 1541 1524 1519 1527 1530 1534 1538 1544
1502 1500 1498 1496 1494 1492 1490 1487 1502 1510 1492 1488 1482 1477 1475 1477 1477 1479 1483 1488 1497 1505 1507 1492 1486 1483 1484 1490 1485 1488 1510 1538 1542 1541 1543 1514 1530 1520 1514 1511 1515 1522 1526 1533 1540
1500 1500 1498 1496 1494 1492 1490 1492 1512 1505 1497 1486 1480 1472 1478 1474 1477 1478 1485 1493 1489 1495 1507 1510 1508 1481 1476 1483 1490 1492 1505 1534 1536 1548 1529 1508 1531 1529 1517 1515 1523 1529 1530 1535 1538
1497 1496 1494 1493 1494 1492 1491 1511 1506 1502 1493 1490 1478 1480 1481 1473 1474 1478 1486 1490 1486 1490 1507 1506 1497 1475 1473 1472 1477 1490 1504 1496 1513 1517 1522 1532 1532 1528 1526 1528 1527 1531 1534 1537 1536
1495 1492 1490 1491 1491 1493 1495 1503 1497 1492 1489 1488 1496 1488 1490 1482 1483 1484 1487 1488 1489 1487 1486 1492 1503 1480 1475 1472 1472 1481 1485 1508 1522 1531 1534 1536 1538 1540 1533 1534 1533 1534 1536 1536 1534
1495 1493 1488 1489 1491 1493 1504 1500 1492 1488 1487 1487 1490 1492 1492 1486 1489 1495 1498 1491 1486 1486 1485 1489 1497 1495 1480 1484 1486 1490 1497 1503 1511 1521 1534 1547 1547 1531 1534 1537 1538 1538 1538 1537 1538
1492 1493 1487 1489 1492 1493 1498 1491 1488 1489 1486 1486 1486 1488 1489 1487 1496 1495 1497 1492 1487 1488 1495 1494 1504 1510 1494 1479 1478 1479 1491 1501 1517 1517 1524 1535 1545 1536 1537 1540 1541 1541 1539 1537 1539
1493 1490 1487 1489 1497 1500 1491 1488 1489 1489 1490 1490 1491 1488 1489 1493 1501 1497 1495 1491 1490 1490 1496 1495 1507 1520 1506 1492 1489 1497 1496 1499 1504 1511 1518 1532 1548 1539 1540 1543 1543 1542 1541 1542 1542
1494 1493 1488 1488 1488 1489 1492 1494 1494 1492 1491 1490 1492 1489 1495 1502 1498 1500 1498 1493 1492 1493 1494 1493 1507 1512 1528 1515 1507 1508 1497 1495 1504 1520 1515 1525 1539 1542 1542 1542 1545 1544 1546 1545 1545
1493 1493 1493 1496 1491 1490 1492 1494 1497 1499 1496 1494 1496 1494 1498 1505 1507 1508 1503 1499 1495 1496 1494 1497 1511 1502 1499 1502 1505 1505 1502 1494 1498 1501 1508 1522 1521 1532 1537 1541 1543 1545 1547 1547 1548
1495 1496 1492 1492 1493 1493 1496 1501 1499 1499 1501 1504 1504 1501 1500 1507 1507 1509 1505 1505 1505 1500 1500 1500 1514 1505 1512 1503 1506 1509 1501 1495 1490 1493 1508 1520 1532 1532 1536 1541 1544 1546 1548 1548 1549
1499 1498 1496 1496 1495 1497 1500 1499 1500 1499 1503 1503 1503 1503 1506 1505 1503 1502 1504 1504 1504 1505 1507 1508 1516 1523 1524 1515 1510 1524 1516 1507 1503 1496 1502 1519 1519 1528 1535 1539 1542 1545 1548 1549 1551